www.pogodaiklimat.ru

АРХИВ ПОГОДЫ в Харькове

Время (UTC), дата Ветер
(напр.,м/с)
 
Видим.   Явления Облачность Т
(С)
Тd
(С)
f
(%)
Тe
(С)
Тes
(С)
Комфортность P
(гПа)
Po
(гПа)
Тmin
(С)
Tmax
(С)
R
(мм)
S
(см)
00 18.05 Ю 3 10 км {гроза, ливн. осадки} 9/9 240 м
[Sc]
+12.8 +11.5 92 +11 +11 по сезону 1009.5 991.1
03 18.05 Ю 3 10 км 9/9 600 м
[Sc]
+11.1 +8.0 81 +9 +9 прохладно 1010.5 992.0
06 18.05 ЮЗ 4 10 км 9/9 400 м
[Sc]
+12.0 +8.6 80 +10 +11 холодно 1011.6 993.1 +11.1 3
09 18.05 ЮЗ 4 10 км 8/8 840 м
[Cu med, cong]
+15.0 +8.7 66 +14 +16 прохладно 1012.0 993.7
12 18.05 З 3 10 км 9/9 1000 м
[Cu Sc]
+15.5 +8.2 62 +15 +16 холодно 1012.1 993.8
15 18.05 СЗ 2 10 км 5/4 1000 м
[Cu med, cong Ci fib]
+16.5 +4.7 46 +17 +18 по сезону 1011.7 993.5
18 18.05 С 1 10 км 6/0
[Ci]
+13.9 +6.7 62 +14 +14 по сезону 1012.1 993.7 +17.1
21 18.05 штиль 0 10 км 5/0
[Ci fib]
+11.6 +8.8 83 +11 +11 прохладно 1012.0 993.5
00 19.05 СЗ 1 10 км 5/5 1000 м
[Sc]
+9.9 +8.3 90 +9 +9 по сезону 1011.2 992.6
03 19.05 СЗ 2 10 км 8/3 1000 м
[Sc Ci fib]
+9.5 +7.6 88 1010.3 991.7
06 19.05 СЗ 3 10 км 9/0
[Ac trans Ci]
+14.5 +10.1 75 +14 +18 по сезону 1009.4 991.1 +9.0
09 19.05 З 5 10 км {ливн. осадки} 10/5 600 м
[Cb cap Ac As]
+14.8 +10.0 73 +13 +15 холодно 1009.2 990.9
12 19.05 СЗ 1 10 км в посл. час ливневой дождь 8/6 1000 м
[Cb calv Ac trans]
+15.3 +8.9 66 +16 +20 холодно 1008.9 990.7
15 19.05 З 5 10 км в посл. час гроза {ливн. осадки} 8/4 600 м
[Cb calv Ac trans]
+14.3 +9.0 70 +13 +13 холодно 1009.0 990.7
18 19.05 З 1 10 км {гроза, ливн. осадки} 4/3 1000 м
[Sc Ac trans]
+11.6 +8.2 80 +11 +11 холодно 1010.0 991.5 +16.4 3
21 19.05 ЮЗ 3 10 км 3/0
[Ci fib]
+8.7 +6.3 85 +6 +6 очень
холодно
1010.3 991.6
00 20.05 Ю 2 10 км 3/0
[Ac trans]
+7.9 +6.2 89 +6 +6 холодно 1009.7 991.0
03 20.05 ЮЗ 6 10 км 8/8 200 м
[Sc]
+8.1 +6.4 89 +4 +4 очень
холодно
1009.7 991.0
06 20.05 ЮЗ 6 10 км 9/9 300 м
[Sc]
+11.8 +7.0 72 +9 +9 холодно 1009.7 991.2 +6.8
09 20.05 ЮЗ 10 10 км в посл. час ливневой дождь 9/9 600 м
[Cb cap]
+14.1 +8.6 69 +11 +11 очень
холодно
1010.2 991.9
12 20.05 Ю 9 10 км {ливн. осадки} 8/5 600 м
[Cb cap Ci fib]
+16.5 +6.6 52 +15 +16 холодно 1009.7 991.5
15 20.05 ЮЗ 7 5000 м гроза, ливневой дождь 9/9 600 м
[Cb calv]
+9.8 +7.5 86 +6 +6 очень
холодно
1012.5 993.8
18 20.05 ЮЗ 3 10 км {гроза, ливн. осадки} 9/5 600 м
[Cb calv Ac trans]
+11.1 +9.3 89 +9 +9 очень
холодно
1011.9 993.4 +17.0 6
21 20.05 Ю 5 10 км 8/0
[Ac trans Ci fib]
+10.2 +7.5 83 +7 +7 холодно 1011.3 992.7
00 21.05 Ю 6 10 км слабый ливневой дождь 10/10 900 м
[Cb calv]
+10.5 +9.3 92 +7 +7 прохладно 1010.3 991.7
03 21.05 ЮЗ 7 10 км слабый ливневой дождь 10/10 240 м
[Cb calv]
+10.3 +9.1 92 +7 +7 холодно 1008.8 990.3
06 21.05 ЮЗ 7 10 км слабый дождь {ливн. осадки} 10/8 330 м
[Frnb As op]
+11.5 +9.9 90 +8 +8 очень
холодно
1009.6 991.1 +10.2 12
09 21.05 ЮЗ 7 10 км {дождь} 10/10 1110 м
[Sc]
+15.3 +10.2 72 +14 +14 прохладно 1010.8 992.5
12 21.05 З 7 10 км {дождь} 9/8 600 м
[Cb cap Ac trans]
+17.8 +8.8 56 +17 +17 прохладно 1011.7 993.6
15 21.05 З 6 10 км 9/5 600 м
[Cb cap Ac trans]
+18.1 +7.2 49 +18 +18 по сезону 1012.9 994.8
18 21.05 ЮЗ 2 10 км 8/4 1000 м
[Sc Ac trans]
+15.2 +8.3 63 +15 +15 по сезону 1014.1 995.8 +18.7 0.0
21 21.05 Ю 2 10 км 6/0
[Ci fib]
+12.0 +7.3 73 +11 +11 прохладно 1014.4 995.9
00 22.05 ЮЗ 3 10 км 8/0
[Ac trans]
+12.2 +7.7 74 +11 +11 по сезону 1014.0 995.5
03 22.05 ЮЗ 2 10 км 3/0
[Ac trans]
+11.4 +8.1 80 +10 +11 прохладно 1014.1 995.5
06 22.05 З 2 10 км 3/0
[Ac trans]
+17.5 +9.3 59 +18 +25 тепло 1013.9 995.7 +10.6
09 22.05 З 6 10 км 5/5 1000 м
[Cu med, cong]
+20.5 +7.0 42 +21 +25 комфорт 1013.8 995.8
12 22.05 ЮЗ 3 10 км в посл. час ливневой дождь 8/8 600 м
[Cb cap]
+21.4 +7.8 42 +22 +25 комфорт 1013.2 995.3
15 22.05 С 4 10 км 8/8 600 м
[Cb cap]
+19.0 +8.9 52 +20 +20 тепло 1013.5 995.4
18 22.05 ЮЗ 2 10 км {гроза, ливн. осадки} 5/0
[Ac trans]
+14.2 +11.8 85 +14 +14 прохладно 1014.0 995.6 +21.6 2
21 22.05 СЗ 2 4000 м дымка 3/0
[Ac trans]
+12.0 +9.4 84 +11 +11 прохладно 1014.2 995.7
00 23.05 З 2 4000 м дымка 4/0
[Ci fib]
+10.2 +8.4 89 +9 +9 прохладно 1013.6 995.0
03 23.05 З 1 4000 м дымка 5/0
[Ci fib]
+10.6 +9.4 92 +10 +11 прохладно 1013.2 994.6
06 23.05 СЗ 1 10 км 8/3 600 м
[Cu hum Ci]
+15.0 +11.7 81 +16 +22 по сезону 1013.0 994.7 +9.9
09 23.05 СВ 1 10 км в посл. час ливневой дождь 9/9 600 м
[Cb calv]
+17.4 +9.4 59 +18 +20 по сезону 1012.5 994.3
12 23.05 СВ 2 10 км гроза без осадков {ливн. осадки} 8/5 600 м
[Cb calv Ac trans Ci]
+19.7 +8.2 47 +21 +26 комфорт 1010.9 992.9
15 23.05 С 3 10 км {гроза, ливн. осадки} 8/6 600 м
[Cb calv Ci]
+20.0 +7.4 44 +21 +22 комфорт 1010.3 992.3
18 23.05 С 2 10 км {гроза, ливн. осадки} 4/0
[Ac trans Ci fib]
+15.0 +10.3 73 +15 +15 по сезону 1011.0 992.7 +20.2 0.4
21 23.05 СЗ 2 10 км 4/0
[Ac trans]
+12.0 +9.7 86 +11 +11 прохладно 1010.7 992.2
00 24.05 З 2 4500 м дымка 4/0
[Ci fib]
+10.5 +8.9 90 +9 +9 прохладно 1009.6 991.1
03 24.05 СЗ 2 4000 м дымка 6/0
[Ac trans Ci fib]
+10.7 +9.3 91 +9 +10 холодно 1009.5 991.0
06 24.05 С 3 10 км 8/5 1000 м
[Cu med, cong Ac trans]
+15.6 +10.5 72 +15 +17 по сезону 1008.8 990.6 +9.2
09 24.05 СЗ 1 10 км 8/8 1000 м
[Cu med, cong]
+18.6 +9.4 55 +20 +24 тепло 1007.9 989.9
12 24.05 З 5 10 км 8/8 600 м
[Cb calv]
+20.2 +8.9 48 +21 +23 комфорт 1006.9 989.0
15 24.05 З 4 10 км 8/5 1000 м
[Cu med, cong Ci]
+19.1 +7.6 47 +20 +21 тепло 1007.0 989.0
18 24.05 штиль 0 10 км 3/0
[Ac trans]
+16.7 +8.8 60 +17 +17 по сезону 1007.3 989.2 +21.0
21 24.05 штиль 0 10 км 3/0
[Ac trans]
+12.0 +9.4 84 +11 +11 прохладно 1007.9 989.5

 

Местоположение метеостанции Харьков (Харьковская область, Украина): широта 49.97 долгота 36.13 высота над уровнем моря 155 м.

В архиве по умолчанию представлена погода в Харькове за последнюю неделю. Архивные данные за месяц целиком и за предыдущие месяцы, начиная с января 2011 года, Вы можете получить, выбрав интересующий диапазон дат из раскрывающегося списка и нажав кнопку "Ввод!".

Внимание! Время в таблицах - всемирное. Для получения местного времени необходимо прибавить поправку, которая в Kharkiv равна 2 ч.

Ветер - указаны скорость ветра в м/с - средняя за 10 мин, порывы в срок и между сроками (в фигурных скобках) и направление, откуда дует ветер: С - северный, СВ - северо-восточный, В - восточный, ЮВ - юго-восточный, Ю - южный, ЮЗ - юго-западный, З - западный, СЗ - северо-западный.
Видимость - горизонтальная дальность видимости в метрах или километрах. При видимости от 1 до 10 км при отсутствии осадков обычно наблюдается дымка, при ухудшении видимости до 1 км и менее - туман. В сухую погоду видимость может ухудшаться дымом, пылью или мглою.
Явления - указаны атмосферные явления, наблюдавшиеся в срок или в последний час перед сроком; фигурными скобками обозначены явления, наблюдавшиеся между сроками (за 1-3 часа до срока); квадратными скобками обозначены град или гололедные отложения с указанием их диаметра в мм.
Облачность - указаны через наклонную черту общая и нижняя облачность в баллах и высота нижней границы облаков в метрах; квадратными скобками обозначены формы облаков: Ci - перистые, Cs - перисто-слоистые, Cc - перисто-кучевые, Ac - высококучевые, As - высокослоистые, Sc - слоисто-кучевые, Ns - слоисто-дождевые, Cu - кучевые, Cb - кучево-дождевые. Подробнее классификацию облаков см. в Атласе облаков (PDF).
T - Температура воздуха - температура, измеренная на высоте 2 м над землей.
Td - Температура точки росы - температура, при понижении до которой содержащийся в воздухе водяной пар достигнет насыщения.
f - Относительная влажность воздуха - влажноcть воздуха, измеренная на высоте 2 м над землей.
Te - Эффективная температура - температура, которую ощущает одетый по сезону человек в тени. Характеристика душности погоды. При расчете учитывается влияние влажности воздуха и скорости ветра на теплоощущения человека.
Tes - Эффективная температура на солнце - температура, которую ощущает человек, с поправкой на солнечный нагрев. Характеристика знойности погоды. Зависит от высоты солнца над горизонтом, облачности и скорости ветра. Ночью, в пасмурную погоду, а также при ветре 12 м/с и более поправка равна нулю.
P - Атмосферное давление - приведенное к уровню моря атмосферное давление.
Po - Атмосферное давление - измеренное на уровне метеостанции атмосферное давление.
Tmin - Минимальная температура - минимум температуры воздуха на высоте 2 м над землей.
Tmax - Максимальная температура - максимум температуры воздуха на высоте 2 м над землей.
R - Количество осадков - Количество выпавших осадков, мм. При наведении курсора мыши на число - период времени, за который выпало указанное количество осадков.
S - Снежный покров - Высота снежного покрова, см. При наведении курсора мыши на число - состояние снежного покрова и степень покрытия местности в баллах.